2024/04/13 00:00:00, 0.5,12.9
2024/04/13 00:10:00, 0.5,12.3
2024/04/13 00:20:00, 0.5,12.8
2024/04/13 00:30:00, 0.5,12.0
2024/04/13 00:40:00, 0.5,11.5
2024/04/13 00:50:00, 0.6,11.6
2024/04/13 01:00:00, 0.5,11.5
2024/04/13 01:10:00, 0.5,11.9
2024/04/13 01:20:00, 0.5,12.1
2024/04/13 01:30:00, 0.5,11.9
2024/04/13 01:40:00, 0.5,11.9
2024/04/13 01:50:00, 0.5,11.9
2024/04/13 02:00:00, 0.5,11.5
2024/04/13 02:10:00, 0.5,11.9
2024/04/13 02:20:00, 0.5,12.3
2024/04/13 02:30:00, 0.5,11.8
2024/04/13 02:40:00, 0.5,12.6
2024/04/13 02:50:00, 0.5,13.6
2024/04/13 03:00:00, 0.5,13.4
2024/04/13 03:10:00, 0.4,13.2
2024/04/13 03:20:00, 0.4,12.9
2024/04/13 03:30:00, 0.4,13.3
2024/04/13 03:40:00, 0.4,14.0
2024/04/13 03:50:00, 0.4,12.4
2024/04/13 04:00:00, 0.3,12.5
2024/04/13 04:10:00, 0.4,12.4
2024/04/13 04:20:00, 0.4,12.3
2024/04/13 04:30:00, 0.4,12.1
2024/04/13 04:40:00, 0.4,12.3
2024/04/13 04:50:00, 0.4,12.0
2024/04/13 05:00:00, 0.4,11.5
2024/04/13 05:10:00, 0.5,12.2
2024/04/13 05:20:00, 0.4,12.3
2024/04/13 05:30:00, 0.4,12.8
2024/04/13 05:40:00, 0.4,12.8
2024/04/13 05:50:00, 0.4,12.6
2024/04/13 06:00:00, 0.4,12.8
2024/04/13 06:10:00, 0.5,12.5
2024/04/13 06:20:00, 0.5,13.1
2024/04/13 06:30:00, 0.4,12.6
2024/04/13 06:40:00, 0.4,12.6
2024/04/13 06:50:00, 0.3,13.0
2024/04/13 07:00:00, 0.3,13.0
2024/04/13 07:10:00, 0.3,13.3
2024/04/13 07:20:00, 0.4,14.0
2024/04/13 07:30:00, 0.4,15.5
2024/04/13 07:40:00, 0.5,17.9
2024/04/13 07:50:00, 0.5,17.7
2024/04/13 08:00:00, 0.5,19.1
2024/04/13 08:10:00, 0.5,19.9
2024/04/13 08:20:00, 0.4,19.4
2024/04/13 08:30:00, 0.4,19.7
2024/04/13 08:40:00, 0.4,19.8
2024/04/13 08:50:00, 0.4,20.0
2024/04/13 09:00:00, 0.3,19.4
2024/04/13 09:10:00, 0.3,19.1
2024/04/13 09:20:00, 0.2,20.1
2024/04/13 09:30:00, 0.2,19.9
2024/04/13 09:40:00, 0.2,20.5
2024/04/13 09:50:00, 0.2,20.4
2024/04/13 10:00:00, 0.2,20.2
2024/04/13 10:10:00, 0.3,20.5
2024/04/13 10:20:00, 0.2,20.2
2024/04/13 10:30:00, 0.2,20.7
2024/04/13 10:40:00, 0.1,20.9
2024/04/13 10:50:00, 0.1,21.7
2024/04/13 11:00:00, 0.1,21.7
2024/04/13 11:10:00, 0.1,21.2
2024/04/13 11:20:00, 0.0,21.5
2024/04/13 11:30:00, 0.0,21.4
2024/04/13 11:40:00, 0.0,21.8
2024/04/13 11:50:00, 0.1,21.8
2024/04/13 12:00:00, 0.0,22.2
2024/04/13 12:10:00, 0.0,22.5
2024/04/13 12:20:00, 0.0,22.7
2024/04/13 12:30:00, 0.0,22.8
2024/04/13 12:40:00, 0.0,22.7
2024/04/13 12:50:00, 0.0,22.8
2024/04/13 13:00:00, 0.0,23.0
2024/04/13 13:10:00, 0.0,23.0
2024/04/13 13:20:00, 0.0,23.4
2024/04/13 13:30:00, 0.0,22.9
2024/04/13 13:40:00, 0.0,23.4
2024/04/13 13:50:00, 0.0,24.1
2024/04/13 14:00:00, 0.0,24.3
2024/04/13 14:10:00, 0.0,23.9
2024/04/13 14:20:00, 0.0,24.5
2024/04/13 14:30:00, 0.0,25.2
2024/04/13 14:40:00, 0.0,25.7
2024/04/13 14:50:00, 0.0,25.7
2024/04/13 15:00:00, 0.0,25.2
2024/04/13 15:10:00, 0.0,24.9
2024/04/13 15:20:00, 0.0,24.6
2024/04/13 15:30:00, 0.1,25.0
2024/04/13 15:40:00, 0.2,25.0
2024/04/13 15:50:00, 0.2,25.1
2024/04/13 16:00:00, 0.2,25.0
2024/04/13 16:10:00, 0.1,25.3
2024/04/13 16:20:00, 0.2,25.8
2024/04/13 16:30:00, 0.2,24.9
2024/04/13 16:40:00, 0.2,25.8
2024/04/13 16:50:00, 0.2,25.6
2024/04/13 17:00:00, 0.3,25.4
2024/04/13 17:10:00, 0.3,24.8
2024/04/13 17:20:00, 0.2,24.3
2024/04/13 17:30:00, 0.3,23.1
2024/04/13 17:40:00, 0.2,22.6
2024/04/13 17:50:00, 0.3,21.7
2024/04/13 18:00:00, 0.4,21.4
2024/04/13 18:10:00, 0.4,20.6
2024/04/13 18:20:00, 0.4,19.0
2024/04/13 18:30:00, 0.3,17.3
2024/04/13 18:40:00, 0.3,16.5
2024/04/13 18:50:00, 0.3,16.0
2024/04/13 19:00:00, 0.3,15.0
2024/04/13 19:10:00, 0.4,15.1
2024/04/13 19:20:00, 0.5,14.7
2024/04/13 19:30:00, 0.5,15.3
2024/04/13 19:40:00, 0.5,15.0
2024/04/13 19:50:00, 0.4,15.3
2024/04/13 20:00:00, 0.4,14.4
2024/04/13 20:10:00, 0.4,13.8
2024/04/13 20:20:00, 0.4,14.0
2024/04/13 20:30:00, 0.4,14.5
2024/04/13 20:40:00, 0.4,14.2
2024/04/13 20:50:00, 0.5,14.8
2024/04/13 21:00:00, 0.5,14.7
2024/04/13 21:10:00, 0.0,14.6
2024/04/13 21:20:00, 0.0,14.7
2024/04/13 21:30:00, 0.0,14.9
2024/04/13 21:40:00, 0.0,16.1
2024/04/13 21:50:00, 0.0,16.5
2024/04/13 22:00:00, 0.0,16.2
2024/04/13 22:10:00, 0.0,14.8
2024/04/13 22:20:00, 0.0,15.9
2024/04/13 22:30:00, 0.0,15.8
2024/04/13 22:40:00, 0.0,14.8
2024/04/13 22:50:00, 0.0,15.5
2024/04/13 23:00:00, 0.0,15.2
2024/04/13 23:10:00, 0.0,15.2
2024/04/13 23:20:00, 0.0,15.1
2024/04/13 23:30:00, 0.0,16.0
2024/04/13 23:40:00, 0.0,15.8
2024/04/13 23:50:00, 0.0,15.4
